Weather History for KMWM - May, 2014

Change the Weather History Date:

Wednesday, May 28, 2014

  Actual Average Record
Temperature  
Mean Temperature 70 °F -  
Max Temperature 80 °F 74 °F 96 °F (2006)
Min Temperature 60 °F 53 °F 33 °F (1965)
Cooling Degree Days 5    
Growing Degree Days 20 (Base 50)    
Moisture  
Dew Point 58 °F    
Average Humidity 70    
Maximum Humidity 100    
Minimum Humidity 41    
Precipitation  
Precipitation 0.00 in - - ()
Sea Level Pressure  
Sea Level Pressure 30.04 in    
Wind  
Wind Speed 5 mph (NE)    
Max Wind Speed 14 mph    
Max Gust Speed 18 mph    
Visibility 8 miles    
Events Fog    
Averages and records for this station are not official NWS values.
T = Trace of Precipitation, MM = Missing Value Source: NWS Daily Summary

Daily Weather History Graph

Daily Weather History Graph

Search for Another Location

Airport or City:

Trip Planner

Search our weather history database for the weather conditions in past years. The results will help you decide how hot, cold, wet, or windy it might be!

Date:

Astronomy

May. 28, 2014 Rise Set
Actual Time 5:43 AM CDT 8:52 PM CDT
Civil Twilight 5:08 AM CDT 9:27 PM CDT
Nautical Twilight 4:23 AM CDT 10:12 PM CDT
Astronomical Twilight 3:29 AM CDT 11:07 PM CDT
Moon 5:52 AM CDT (5/28) 8:50 PM CDT (5/28)
Length of Visible Light 16h 19m
Length of Day
15h 09m
Waning Crescent, 0% of the Moon is Illuminated
May 28
Waning Crescent
May 28
New
Jun 5
First Quarter
Jun 12
Full
Jun 19
Last Quarter

Hourly Weather History & Observations

Time (CDT) Temp. Heat Index Dew Point Humidity Pressure Visibility Wind Dir Wind Speed Gust Speed Precip Events Conditions
12:13 AM 64.4 °F - 60.8 °F 88% 30.01 in 10.0 mi WNW 6.9 mph - N/A   Scattered Clouds
12:33 AM 64.4 °F - 60.8 °F 88% 30.00 in 10.0 mi Calm Calm - N/A   Scattered Clouds
12:52 AM 62.6 °F - 60.8 °F 94% 30.00 in 10.0 mi ENE 3.5 mph - N/A   Scattered Clouds
1:12 AM 62.6 °F - 60.8 °F 94% 30.00 in 10.0 mi NE 4.6 mph - N/A   Mostly Cloudy
1:33 AM 60.8 °F - 59.0 °F 94% 30.00 in 5.0 mi NNE 3.5 mph - N/A   Scattered Clouds
1:52 AM 60.8 °F - 60.8 °F 100% 30.00 in 5.0 mi NNE 5.8 mph - N/A   Clear
2:12 AM 60.8 °F - 60.8 °F 100% 30.00 in 5.0 mi Calm Calm - N/A   Scattered Clouds
2:32 AM 60.8 °F - 59.0 °F 94% 30.00 in 5.0 mi Calm Calm - N/A   Mostly Cloudy
2:52 AM 62.6 °F - 60.8 °F 94% 30.00 in 5.0 mi Calm Calm - N/A   Overcast
3:12 AM 62.6 °F - 60.8 °F 94% 30.00 in 4.0 mi Calm Calm - N/A   Overcast
3:32 AM 62.6 °F - 60.8 °F 94% 30.01 in 4.0 mi East 3.5 mph - N/A   Overcast
3:53 AM 62.6 °F - 60.8 °F 94% 30.01 in 3.0 mi Calm Calm - N/A   Overcast
4:12 AM 62.6 °F - 60.8 °F 94% 30.01 in 2.0 mi North 3.5 mph - N/A   Overcast
4:32 AM 62.6 °F - 60.8 °F 94% 30.01 in 1.5 mi NE 3.5 mph - N/A   Overcast
4:53 AM 60.8 °F - 60.8 °F 100% 30.01 in 0.5 mi NE 4.6 mph - N/A Fog Fog
5:12 AM 60.8 °F - 60.8 °F 100% 30.02 in 0.5 mi NE 3.5 mph - N/A Fog Fog
5:32 AM 60.8 °F - 60.8 °F 100% 30.02 in 0.5 mi NE 4.6 mph - N/A Fog Fog
5:53 AM 60.8 °F - 60.8 °F 100% 30.02 in 2.5 mi NNE 6.9 mph - N/A   Overcast
6:12 AM 60.8 °F - 60.8 °F 100% 30.03 in 3.0 mi NE 5.8 mph - N/A   Overcast
6:32 AM 60.8 °F - 60.8 °F 100% 30.03 in 0.5 mi NNE 5.8 mph - N/A Fog Fog
6:53 AM 60.8 °F - 60.8 °F 100% 30.04 in 0.2 mi NNE 4.6 mph - N/A Fog Fog
7:12 AM 62.6 °F - 60.8 °F 94% 30.05 in 0.2 mi North 3.5 mph - N/A Fog Fog
7:32 AM 62.6 °F - 60.8 °F 94% 30.05 in 0.2 mi North 6.9 mph - N/A Fog Fog
7:53 AM 62.6 °F - 60.8 °F 94% 30.05 in 0.2 mi North 5.8 mph - N/A Fog Fog
8:12 AM 62.6 °F - 60.8 °F 94% 30.05 in 2.0 mi NE 5.8 mph - N/A   Overcast
8:33 AM 62.6 °F - 60.8 °F 94% 30.06 in 5.0 mi NNE 4.6 mph - N/A   Mostly Cloudy
8:53 AM 66.2 °F - 60.8 °F 83% 30.06 in 10.0 mi NE 4.6 mph - N/A   Scattered Clouds
9:13 AM 68.0 °F - 59.0 °F 73% 30.06 in 10.0 mi NE 5.8 mph - N/A   Clear
9:34 AM 69.8 °F - 60.8 °F 73% 30.06 in 10.0 mi NNE 6.9 mph - N/A   Clear
9:54 AM 71.6 °F - 60.8 °F 69% 30.07 in 10.0 mi NE 8.1 mph - N/A   Clear
10:13 AM 73.4 °F - 60.8 °F 65% 30.07 in 10.0 mi NNE 5.8 mph - N/A   Clear
10:34 AM 73.4 °F - 60.8 °F 65% 30.07 in 10.0 mi NE 5.8 mph - N/A   Scattered Clouds
10:54 AM 73.4 °F - 60.8 °F 65% 30.07 in 10.0 mi NNE 11.5 mph - N/A   Scattered Clouds
11:13 AM 75.2 °F - 62.6 °F 65% 30.07 in 10.0 mi NE 8.1 mph - N/A   Scattered Clouds
11:54 AM 75.2 °F - 60.8 °F 61% 30.07 in 10.0 mi ENE 12.7 mph 16.1 mph N/A   Mostly Cloudy
12:13 PM 78.8 °F - 60.8 °F 54% 30.07 in 10.0 mi NE 12.7 mph 18.4 mph N/A   Mostly Cloudy
12:33 PM 78.8 °F - 60.8 °F 54% 30.07 in 10.0 mi ENE 12.7 mph 18.4 mph N/A   Scattered Clouds
1:13 PM 80.6 °F 81.5 °F 60.8 °F 51% 30.07 in 10.0 mi East 9.2 mph - N/A   Clear
1:53 PM 80.6 °F 81.1 °F 59.0 °F 48% 30.06 in 10.0 mi ENE 10.4 mph - N/A   Clear
2:13 PM 78.8 °F - 59.0 °F 51% 30.06 in 10.0 mi NE 8.1 mph 18.4 mph N/A   Clear
2:34 PM 80.6 °F 80.8 °F 57.2 °F 45% 30.06 in 10.0 mi ENE 9.2 mph 16.1 mph N/A   Scattered Clouds
2:53 PM 80.6 °F 80.5 °F 55.4 °F 42% 30.06 in 10.0 mi NE 6.9 mph - N/A   Clear
3:13 PM 80.6 °F 80.8 °F 57.2 °F 45% 30.05 in 10.0 mi ENE 11.5 mph - N/A   Scattered Clouds
3:34 PM 80.6 °F 80.5 °F 55.4 °F 42% 30.05 in 10.0 mi East 8.1 mph - N/A   Scattered Clouds
3:53 PM 80.6 °F 80.5 °F 55.4 °F 42% 30.05 in 10.0 mi NNE 4.6 mph - N/A   Clear
4:13 PM 80.6 °F 80.5 °F 55.4 °F 42% 30.05 in 10.0 mi NE 6.9 mph - N/A   Scattered Clouds
4:34 PM 80.6 °F 80.5 °F 55.4 °F 42% 30.04 in 10.0 mi ENE 5.8 mph - N/A   Scattered Clouds
5:13 PM 78.8 °F - 55.4 °F 44% 30.04 in 10.0 mi ENE 9.2 mph - N/A   Scattered Clouds
5:34 PM 80.6 °F 80.5 °F 55.4 °F 42% 30.04 in 10.0 mi East 8.1 mph 17.3 mph N/A   Scattered Clouds
6:13 PM 80.6 °F 80.8 °F 57.2 °F 45% 30.04 in 10.0 mi NE 11.5 mph - N/A   Scattered Clouds
6:34 PM 78.8 °F - 57.2 °F 47% 30.04 in 10.0 mi ENE 13.8 mph - N/A   Scattered Clouds
6:53 PM 78.8 °F - 55.4 °F 44% 30.04 in 10.0 mi East 9.2 mph - N/A   Clear
7:13 PM 78.8 °F - 55.4 °F 44% 30.04 in 10.0 mi NE 5.8 mph - N/A   Clear
7:34 PM 78.8 °F - 53.6 °F 42% 30.04 in 10.0 mi NE 5.8 mph - N/A   Clear
7:53 PM 77.0 °F - 51.8 °F 41% 30.05 in 10.0 mi ENE 8.1 mph - N/A   Clear
8:14 PM 75.2 °F - 50.0 °F 41% 30.05 in 10.0 mi ENE 9.2 mph - N/A   Clear
8:34 PM 73.4 °F - 51.8 °F 47% 30.05 in 10.0 mi ENE 8.1 mph - N/A   Clear
8:53 PM 71.6 °F - 50.0 °F 46% 30.06 in 10.0 mi ENE 6.9 mph - N/A   Clear
9:14 PM 69.8 °F - 50.0 °F 49% 30.07 in 10.0 mi ENE 8.1 mph - N/A   Clear
9:34 PM 68.0 °F - 50.0 °F 52% 30.07 in 10.0 mi ENE 6.9 mph - N/A   Clear
9:53 PM 66.2 °F - 50.0 °F 56% 30.08 in 10.0 mi ENE 6.9 mph - N/A   Clear
10:14 PM 66.2 °F - 50.0 °F 56% 30.08 in 10.0 mi East 5.8 mph - N/A   Clear
10:53 PM 64.4 °F - 50.0 °F 59% 30.08 in 10.0 mi East 6.9 mph - N/A   Clear
11:14 PM 64.4 °F - 51.8 °F 64% 30.08 in 10.0 mi East 4.6 mph - N/A   Clear
11:34 PM 64.4 °F - 51.8 °F 64% 30.08 in 10.0 mi East 4.6 mph - N/A   Clear
11:53 PM 64.4 °F - 51.8 °F 64% 30.08 in 10.0 mi ESE 5.8 mph - N/A   Clear